GW6092 Weather Reports


Display with metric or nautical units.
time (UTC)temp
F
wind
direction
speed
MPH
gust
MPH
rain 1hr
in
rain 24hr
in
rain mn
in
humidity
%
barometer
mb
20260504231218 74 38 1.0 1.0 0.00 0.00 0.00 34 1008.5
20260504230714 75 121 6.0 8.0 0.00 0.00 0.00 33 1008.5
20260504230214 75 31 2.0 3.0 0.00 0.00 0.00 33 1008.3
20260504225712 75 50 1.0 1.0 0.00 0.00 0.00 33 1008.4
20260504225207 74 22 0.0 0.0 0.00 0.00 0.00 33 1008.4
20260504224705 74 26 0.0 1.0 0.00 0.00 0.00 39 1008.5
20260504224202 74 34 2.0 3.0 0.00 0.00 0.00 33 1008.4
20260504223658 75 58 3.0 3.0 0.00 0.00 0.00 34 1008.1
20260504223154 75 49 1.0 1.0 0.00 0.00 0.00 32 1008.5
20260504222651 75 83 2.0 3.0 0.00 0.00 0.00 32 1008.3
20260504222148 75 33 0.0 1.0 0.00 0.00 0.00 33 1008.3
20260504221645 76 30 0.0 1.0 0.00 0.00 0.00 32 1008.4
20260504221142 76 92 4.0 6.0 0.00 0.00 0.00 31 1008.2
20260504220638 76 112 1.0 3.0 0.00 0.00 0.00 31 1008.1
20260504220136 77 22 0.0 1.0 0.00 0.00 0.00 31 1008.2
20260504215632 77 97 2.0 2.0 0.00 0.00 0.00 31 1008.3
20260504215130 77 184 3.0 4.0 0.00 0.00 0.00 31 1008.2
20260504214626 77 22 1.0 1.0 0.00 0.00 0.00 31 1008.2
20260504214122 77 52 1.0 2.0 0.00 0.00 0.00 30 1008.2
20260504213619 77 76 3.0 4.0 0.00 0.00 0.00 31 1008.3
20260504213116 78 23 1.0 1.0 0.00 0.00 0.00 30 1008.4
20260504212612 77 332 2.0 3.0 0.00 0.00 0.00 32 1008.3
20260504212109 77 211 1.0 2.0 0.00 0.00 0.00 31 1008.6
20260504211606 77 126 6.0 7.0 0.00 0.00 0.00 30 1008.6
20260504211102 77 83 4.0 8.0 0.00 0.00 0.00 30 1008.4
20260504210600 78 27 3.0 4.0 0.00 0.00 0.00 29 1008.7
20260504210056 77 20 1.0 2.0 0.00 0.00 0.00 32 1008.5
20260504205554 78 322 4.0 8.0 0.00 0.00 0.00 29 1008.5
20260504205052 78 17 2.0 3.0 0.00 0.00 0.00 30 1008.4
20260504204550 78 108 3.0 4.0 0.00 0.00 0.00 31 1008.6
20260504204049 77 325 2.0 2.0 0.00 0.00 0.00 31 1008.6
20260504203546 77 106 2.0 3.0 0.00 0.00 0.00 33 1008.4
20260504203044 77 78 4.0 4.0 0.00 0.00 0.00 31 1008.6
20260504202539 77 26 0.0 0.0 0.00 0.00 0.00 31 1008.6
20260504202036 79 194 3.0 3.0 0.00 0.00 0.00 30 1009.0
20260504201533 79 77 3.0 3.0 0.00 0.00 0.00 30 1008.8
20260504201031 78 14 0.0 0.0 0.00 0.00 0.00 32 1008.8
20260504200527 77 299 3.0 3.0 0.00 0.00 0.00 32 1008.8
20260504200024 77 209 4.0 7.0 0.00 0.00 0.00 31 1008.9
20260504195520 78 185 3.0 3.0 0.00 0.00 0.00 30 1008.8
20260504195017 78 0 3.0 4.0 0.00 0.00 0.00 32 1009.0
20260504194513 77 10 3.0 3.0 0.00 0.00 0.00 31 1009.2
20260504194008 77 125 3.0 6.0 0.00 0.00 0.00 32 1009.2
20260504193506 76 137 2.0 3.0 0.00 0.00 0.00 31 1009.4
20260504193004 77 325 3.0 6.0 0.00 0.00 0.00 31 1009.5
20260504192502 77 194 2.0 3.0 0.00 0.00 0.00 30 1009.6
20260504192000 77 69 2.0 3.0 0.00 0.00 0.00 31 1009.8
20260504191458 77 15 3.0 3.0 0.00 0.00 0.00 29 1009.8
20260504190953 77 2 6.0 7.0 0.00 0.00 0.00 30 1009.8
20260504190449 77 354 1.0 1.0 0.00 0.00 0.00 31 1009.8
20260504185946 77 165 3.0 4.0 0.00 0.00 0.00 31 1010.0
20260504185443 77 14 1.0 2.0 0.00 0.00 0.00 30 1009.9
20260504184939 77 210 2.0 3.0 0.00 0.00 0.00 31 1010.1
20260504184434 77 142 1.0 2.0 0.00 0.00 0.00 30 1010.2
20260504183931 76 230 3.0 3.0 0.00 0.00 0.00 32 1010.3
20260504183428 77 334 7.0 8.0 0.00 0.00 0.00 28 1010.5
20260504182926 76 73 1.0 1.0 0.00 0.00 0.00 30 1010.5
20260504182423 76 191 2.0 3.0 0.00 0.00 0.00 30 1010.4
20260504181920 76 84 3.0 3.0 0.00 0.00 0.00 33 1010.5
20260504181417 77 24 1.0 1.0 0.00 0.00 0.00 30 1010.5
20260504180916 76 351 2.0 3.0 0.00 0.00 0.00 32 1010.6
20260504180414 75 2 3.0 4.0 0.00 0.00 0.00 33 1010.5
20260504175912 75 350 0.0 1.0 0.00 0.00 0.00 34 1010.7
20260504175409 76 201 4.0 4.0 0.00 0.00 0.00 28 1010.9
20260504174906 76 12 2.0 3.0 0.00 0.00 0.00 30 1010.8
20260504174404 75 188 4.0 6.0 0.00 0.00 0.00 29 1010.9
20260504173901 75 22 1.0 2.0 0.00 0.00 0.00 30 1010.9
20260504173357 75 211 2.0 4.0 0.00 0.00 0.00 35 1011.0
20260504172854 74 135 3.0 6.0 0.00 0.00 0.00 31 1011.0
20260504172351 75 350 3.0 4.0 0.00 0.00 0.00 29 1011.0
20260504171847 75 291 3.0 3.0 0.00 0.00 0.00 29 1011.3
20260504171344 75 59 1.0 1.0 0.00 0.00 0.00 30 1011.1
20260504170841 74 146 7.0 10.0 0.00 0.00 0.00 30 1011.4
20260504170338 74 137 5.0 9.0 0.00 0.00 0.00 30 1011.5
20260504160256 72 36 1.0 1.0 0.00 0.00 0.00 32 1012.1
20260504150722 70 4 3.0 4.0 0.00 0.00 0.00 33 1012.7
20260504150218 70 130 4.0 6.0 0.00 0.00 0.00 33 1012.8
20260504141148 67 46 0.0 1.0 0.00 0.00 0.00 38 1012.9
20260504140645 66 34 1.0 1.0 0.00 0.00 0.00 41 1012.7
20260504140140 66 356 4.0 6.0 0.00 0.00 0.00 37 1012.8
20260504130608 60 39 1.0 1.0 0.00 0.00 0.00 47 1013.2
20260504130105 60 116 4.0 4.0 0.00 0.00 0.00 49 1013.2
20260504110456 41 30 0.0 0.0 0.00 0.00 0.00 92 1014.0
20260504100418 42 27 0.0 0.0 0.00 0.00 0.00 91 1013.9
20260504081811 40 27 0.0 0.0 0.00 0.00 0.00 91 1014.6
20260504081308 40 27 0.0 0.0 0.00 0.00 0.00 91 1014.7
20260504080804 40 29 0.0 0.0 0.00 0.00 0.00 91 1014.6
20260504080301 40 29 0.0 0.0 0.00 0.00 0.00 91 1014.6
20260504070228 40 29 0.0 0.0 0.00 0.00 0.00 90 1014.6
20260504060149 39 23 0.0 1.0 0.00 0.00 0.00 91 1014.9
20260504050617 39 29 0.0 0.0 0.00 0.00 0.00 89 1014.9
20260504050114 39 27 0.0 0.0 0.00 0.00 0.00 89 1014.9
20260504045611 39 27 0.0 1.0 0.00 0.00 0.00 89 1014.8
20260504045106 39 24 0.0 0.0 0.00 0.00 0.00 89 1014.8
20260504044604 39 28 0.0 0.0 0.00 0.00 0.00 89 1014.8
20260504044100 39 27 0.0 0.0 0.00 0.00 0.00 89 1014.7
20260504043558 39 25 0.0 0.0 0.00 0.00 0.00 88 1014.8
20260504043055 39 25 0.0 1.0 0.00 0.00 0.00 88 1014.7
20260504042552 39 27 0.0 0.0 0.00 0.00 0.00 88 1015.0
20260504042049 39 26 0.0 0.0 0.00 0.00 0.00 87 1015.0
20260504041544 39 26 0.0 0.0 0.00 0.00 0.00 87 1014.7
20260504041041 39 33 0.0 0.0 0.00 0.00 0.00 86 1014.8
20260504040539 40 33 0.0 0.0 0.00 0.00 0.00 85 1014.9
20260504040035 40 33 0.0 0.0 0.00 0.00 0.00 85 1014.8
20260504035532 40 33 0.0 0.0 0.00 0.00 0.00 85 1014.9
20260504035028 40 33 0.0 0.0 0.00 0.00 0.00 84 1014.7
20260504034526 40 33 0.0 0.0 0.00 0.00 0.00 83 1014.4
20260504034023 40 33 0.0 0.0 0.00 0.00 0.00 82 1014.7
20260504033521 40 33 0.0 0.0 0.00 0.00 0.00 82 1014.6
20260504033018 40 33 0.0 0.0 0.00 0.00 0.00 82 1014.3
20260504032515 40 34 0.0 0.0 0.00 0.00 0.00 81 1014.2
20260504032012 40 33 0.0 0.0 0.00 0.00 0.00 80 1014.2
20260504031509 41 33 0.0 0.0 0.00 0.00 0.00 80 1014.2
20260504031005 41 33 0.0 0.0 0.00 0.00 0.00 78 1014.2
20260504030502 41 33 0.0 0.0 0.00 0.00 0.00 77 1014.2
20260504025958 41 33 0.0 0.0 0.00 0.00 0.00 77 1014.2
20260504025455 42 33 0.0 0.0 0.00 0.00 0.00 77 1014.1
20260504024952 42 33 0.0 0.0 0.00 0.00 0.00 76 1014.1
20260504024449 42 33 0.0 0.0 0.00 0.00 0.00 75 1014.1
20260504023946 42 33 0.0 0.0 0.00 0.00 0.00 74 1014.1
20260504023443 43 33 0.0 0.0 0.00 0.00 0.00 74 1014.1
20260504022938 43 33 0.0 0.0 0.00 0.00 0.00 73 1014.0
20260504022435 43 33 0.0 0.0 0.00 0.00 0.00 72 1014.1
20260504021931 43 33 0.0 0.0 0.00 0.00 0.00 72 1014.0
20260504021429 43 33 0.0 0.0 0.00 0.00 0.00 70 1014.0
20260504020926 44 33 0.0 0.0 0.00 0.00 0.00 69 1014.2
20260504020422 44 34 0.0 0.0 0.00 0.00 0.00 69 1014.2
20260504015919 44 33 0.0 0.0 0.00 0.00 0.00 69 1013.9
20260504015415 44 33 0.0 0.0 0.00 0.00 0.00 67 1014.1
20260504014911 45 33 0.0 0.0 0.00 0.00 0.00 66 1014.0
20260504014407 45 33 0.0 0.0 0.00 0.00 0.00 65 1013.9
20260504013904 46 33 0.0 0.0 0.00 0.00 0.00 64 1014.0
20260504013403 46 34 0.0 0.0 0.00 0.00 0.00 65 1014.0
20260504012859 46 35 0.0 0.0 0.00 0.00 0.00 63 1013.9
20260504012357 47 31 0.0 0.0 0.00 0.00 0.00 61 1013.8
20260504011854 47 31 0.0 0.0 0.00 0.00 0.00 61 1013.8
20260504011350 47 29 0.0 0.0 0.00 0.00 0.00 60 1013.8
20260504010846 48 31 0.0 0.0 0.00 0.00 0.00 58 1013.6
20260504010342 48 32 0.0 0.0 0.00 0.00 0.00 57 1013.5
20260504005839 48 33 0.0 0.0 0.00 0.00 0.00 57 1013.6
20260504005336 49 34 0.0 0.0 0.00 0.00 0.00 55 1013.7
20260504004833 49 34 0.0 0.0 0.00 0.00 0.00 54 1013.6
20260504004331 49 33 0.0 0.0 0.00 0.00 0.00 54 1013.3
20260504003827 50 32 0.0 0.0 0.00 0.00 0.00 51 1013.3
20260504003324 51 32 0.0 0.0 0.00 0.00 0.00 51 1013.4
20260504002821 51 33 0.0 0.0 0.00 0.00 0.00 49 1013.4
20260504002317 52 33 0.0 0.0 0.00 0.00 0.00 47 1013.2
20260504001815 53 34 0.0 0.0 0.00 0.00 0.00 45 1013.2
20260504001312 53 33 0.0 0.0 0.00 0.00 0.00 43 1013.4
20260504000809 54 35 0.0 1.0 0.00 0.00 0.00 43 1013.2
20260504000306 55 33 0.0 0.0 0.00 0.00 0.00 42 1013.0
20260503235804 55 32 0.0 0.0 0.00 0.00 0.00 40 1013.0
20260503235301 56 32 0.0 0.0 0.00 0.00 0.00 39 1012.9
20260503234759 57 31 0.0 0.0 0.00 0.00 0.00 36 1012.8
20260503234256 58 31 0.0 0.0 0.00 0.00 0.00 38 1012.9
20260503233754 59 30 0.0 0.0 0.00 0.00 0.00 37 1012.7
20260503233249 60 29 0.0 0.0 0.00 0.00 0.00 36 1012.8
20260503232746 60 17 1.0 2.0 0.00 0.00 0.00 32 1012.7
20260503232243 60 24 1.0 1.0 0.00 0.00 0.00 32 1012.6
20260503231741 61 9 1.0 2.0 0.00 0.00 0.00 31 1012.5